Allentown, PA

6:03 PM EST on December 06, 2019 (GMT -0500)
Allentown

Weather History for KXLL - June, 2019

Change the Weather History Date:

Friday, June 7, 2019

  Actual Average (WUND) Record (WUND)
Temperature  
Mean Temperature 71 °F -  
Max Temperature 80 °F - - (-1)
Min Temperature 62 °F - - (-1)
Cooling Degree Days 6    
Growing Degree Days 21 (Base 50)    
Moisture  
Dew Point 56 °F    
Average Humidity 59    
Maximum Humidity 82    
Minimum Humidity 37    
Precipitation  
Precipitation 0.00 in - - ()
Sea Level Pressure  
Sea Level Pressure 29.95 in    
Wind  
Wind Speed 3 mph ()    
Max Wind Speed 9 mph    
Max Gust Speed -    
Visibility 10.0 miles    
Events      
Averages and records for this station are not official NWS values.
T = Trace of Precipitation, MM = Missing Value Source: Averaged Metar Reports

Daily Weather History Graph

Daily Weather History Graph

Search for Another Location

Airport or City:

Astronomy

Jun. 07, 2019 Rise Set
Actual Time 5:31 AM EDT 8:30 PM EDT
Civil Twilight 4:58 AM EDT 9:03 PM EDT
Nautical Twilight 4:16 AM EDT 9:45 PM EDT
Astronomical Twilight 3:28 AM EDT 10:33 PM EDT
Moon 9:46 AM EDT (6/7) No Moon Set
Length of Visible Light 16h 04m
Length of Day
14h 58m
Waxing Crescent, 22% of the Moon is Illuminated
Jun 7
Waxing Crescent
Jun 10
First Quarter
Jun 17
Full
Jun 25
Last Quarter
Jul 2
New

Hourly Weather History & Observations

Time (EDT) Temp. Heat Index Dew Point Humidity Pressure Visibility Wind Dir Wind Speed Gust Speed Precip Events Conditions
12:15 AM 68.0 °F - 59.0 °F 73% 29.90 in 10.0 mi Calm Calm - N/A   Clear
12:35 AM 68.0 °F - 59.0 °F 73% 29.91 in 10.0 mi Calm Calm - N/A   Scattered Clouds
12:55 AM 68.0 °F - 59.0 °F 73% 29.91 in 10.0 mi Calm Calm - N/A   Mostly Cloudy
1:15 AM 68.0 °F - 59.0 °F 73% 29.90 in 10.0 mi NNE 4.6 mph - N/A   Mostly Cloudy
1:35 AM 68.0 °F - 59.0 °F 73% 29.90 in 10.0 mi NNE 3.5 mph - N/A   Mostly Cloudy
1:55 AM 68.0 °F - 59.0 °F 73% 29.90 in 10.0 mi ENE 3.5 mph - N/A   Mostly Cloudy
2:15 AM 68.0 °F - 59.0 °F 73% 29.90 in 10.0 mi Calm Calm - N/A   Mostly Cloudy
2:35 AM 68.0 °F - 57.2 °F 68% 29.90 in 10.0 mi Calm Calm - N/A   Mostly Cloudy
2:55 AM 68.0 °F - 59.0 °F 73% 29.91 in 10.0 mi Calm Calm - N/A   Scattered Clouds
3:15 AM 66.2 °F - 57.2 °F 73% 29.90 in 10.0 mi Calm Calm - N/A   Mostly Cloudy
3:35 AM 64.4 °F - 57.2 °F 77% 29.90 in 10.0 mi North 3.5 mph - N/A   Scattered Clouds
3:55 AM 64.4 °F - 57.2 °F 77% 29.90 in 10.0 mi North 3.5 mph - N/A   Clear
4:15 AM 64.4 °F - 57.2 °F 77% 29.90 in 10.0 mi North 3.5 mph - N/A   Clear
4:35 AM 62.6 °F - 57.2 °F 82% 29.90 in 10.0 mi North 4.6 mph - N/A   Clear
4:55 AM 62.6 °F - 55.4 °F 77% 29.91 in 10.0 mi NNE 4.6 mph - N/A   Clear
5:15 AM 62.6 °F - 55.4 °F 77% 29.91 in 10.0 mi North 3.5 mph - N/A   Clear
5:35 AM 62.6 °F - 55.4 °F 77% 29.92 in 10.0 mi North 4.6 mph - N/A   Clear
5:55 AM 62.6 °F - 55.4 °F 77% 29.92 in 10.0 mi North 4.6 mph - N/A   Clear
6:15 AM 62.6 °F - 55.4 °F 77% 29.93 in 10.0 mi NNE 4.6 mph - N/A   Scattered Clouds
6:35 AM 62.6 °F - 57.2 °F 82% 29.93 in 10.0 mi NE 3.5 mph - N/A   Clear
6:55 AM 64.4 °F - 57.2 °F 77% 29.94 in 10.0 mi Calm Calm - N/A   Clear
7:15 AM 64.4 °F - 55.4 °F 73% 29.94 in 10.0 mi North 3.5 mph - N/A   Clear
7:35 AM 64.4 °F - 55.4 °F 73% 29.95 in 10.0 mi Calm Calm - N/A   Clear
7:55 AM 66.2 °F - 53.6 °F 64% 29.95 in 10.0 mi NE 4.6 mph - N/A   Clear
8:15 AM 66.2 °F - 55.4 °F 68% 29.95 in 10.0 mi ENE 4.6 mph - N/A   Clear
8:35 AM 68.0 °F - 53.6 °F 60% 29.96 in 10.0 mi NNE 3.5 mph - N/A   Clear
8:55 AM 68.0 °F - 53.6 °F 60% 29.96 in 10.0 mi NE 4.6 mph - N/A   Clear
9:15 AM 69.8 °F - 55.4 °F 60% 29.96 in 10.0 mi ENE 4.6 mph - N/A   Clear
9:35 AM 69.8 °F - 53.6 °F 56% 29.96 in 10.0 mi ENE 6.9 mph - N/A   Clear
9:55 AM 69.8 °F - 53.6 °F 56% 29.95 in 10.0 mi ENE 4.6 mph - N/A   Clear
10:15 AM 71.6 °F - 55.4 °F 57% 29.96 in 10.0 mi NNE 3.5 mph - N/A   Clear
10:35 AM 71.6 °F - 55.4 °F 57% 29.96 in 10.0 mi Calm Calm - N/A   Clear
10:55 AM 73.4 °F - 55.4 °F 53% 29.96 in 10.0 mi NNE 5.8 mph - N/A   Clear
11:15 AM 73.4 °F - 55.4 °F 53% 29.96 in 10.0 mi North 5.8 mph - N/A   Clear
11:35 AM 73.4 °F - 55.4 °F 53% 29.97 in 10.0 mi North 5.8 mph - N/A   Scattered Clouds
11:55 AM 73.4 °F - 55.4 °F 53% 29.97 in 10.0 mi Calm Calm - N/A   Scattered Clouds
12:15 PM 75.2 °F - 55.4 °F 50% 29.97 in 10.0 mi North 3.5 mph - N/A   Scattered Clouds
12:35 PM 77.0 °F - 53.6 °F 44% 29.97 in 10.0 mi NNE 9.2 mph - N/A   Scattered Clouds
12:55 PM 77.0 °F - 53.6 °F 44% 29.97 in 10.0 mi NNE 8.1 mph - N/A   Scattered Clouds
1:15 PM 77.0 °F - 53.6 °F 44% 29.97 in 10.0 mi ENE 5.8 mph - N/A   Clear
1:35 PM 78.8 °F - 55.4 °F 44% 29.96 in 10.0 mi NE 9.2 mph - N/A   Clear
1:55 PM 77.0 °F - 53.6 °F 44% 29.96 in 10.0 mi North 5.8 mph - N/A   Scattered Clouds
2:15 PM 78.8 °F - 53.6 °F 42% 29.95 in 10.0 mi NE 5.8 mph - N/A   Scattered Clouds
2:35 PM 78.8 °F - 51.8 °F 39% 29.94 in 10.0 mi NNW 4.6 mph - N/A   Clear
2:55 PM 78.8 °F - 51.8 °F 39% 29.94 in 10.0 mi ENE 3.5 mph - N/A   Clear
3:15 PM 80.6 °F - 51.8 °F 37% 29.94 in 10.0 mi NE 5.8 mph - N/A   Clear
3:35 PM 80.6 °F 80.3 °F 53.6 °F 39% 29.94 in 10.0 mi Calm Calm - N/A   Clear
3:55 PM 80.6 °F 80.3 °F 53.6 °F 39% 29.94 in 10.0 mi NNW 8.1 mph - N/A   Clear
4:15 PM 78.8 °F - 53.6 °F 42% 29.94 in 10.0 mi Calm Calm - N/A   Clear
4:35 PM 80.6 °F 80.5 °F 55.4 °F 42% 29.94 in 10.0 mi ENE 3.5 mph - N/A   Clear
4:55 PM 78.8 °F - 55.4 °F 44% 29.94 in 10.0 mi Calm Calm - N/A   Clear
5:15 PM 78.8 °F - 55.4 °F 44% 29.94 in 10.0 mi ESE 3.5 mph - N/A   Clear
5:35 PM 78.8 °F - 55.4 °F 44% 29.94 in 10.0 mi East 4.6 mph - N/A   Clear
5:55 PM 78.8 °F - 55.4 °F 44% 29.94 in 10.0 mi East 5.8 mph - N/A   Clear
6:15 PM 77.0 °F - 55.4 °F 47% 29.94 in 10.0 mi East 4.6 mph - N/A   Scattered Clouds
6:35 PM 77.0 °F - 55.4 °F 47% 29.94 in 10.0 mi East 5.8 mph - N/A   Scattered Clouds
6:55 PM 77.0 °F - 55.4 °F 47% 29.95 in 10.0 mi East 4.6 mph - N/A   Mostly Cloudy
7:15 PM 77.0 °F - 57.2 °F 50% 29.96 in 10.0 mi ESE 3.5 mph - N/A   Mostly Cloudy
7:35 PM 77.0 °F - 55.4 °F 47% 29.97 in 10.0 mi North 6.9 mph - N/A   Mostly Cloudy
7:55 PM 77.0 °F - 53.6 °F 44% 29.97 in 10.0 mi NE 4.6 mph - N/A   Scattered Clouds
8:15 PM - - - N/A% 29.98 in 10.0 mi ENE 4.6 mph - N/A   Clear
8:35 PM - - - N/A% 29.97 in 10.0 mi Calm Calm - N/A   Clear
8:55 PM - - - N/A% 29.98 in 10.0 mi Calm Calm - N/A   Clear
9:15 PM - - - N/A% 29.99 in 10.0 mi Calm Calm - N/A   Clear
9:35 PM - - - N/A% 29.99 in 10.0 mi Calm Calm - N/A   Clear
9:55 PM - - - N/A% 30.00 in 10.0 mi Calm Calm - N/A   Clear
10:15 PM - - - N/A% 30.01 in 10.0 mi Calm Calm - N/A   Clear
10:35 PM - - - N/A% 30.01 in 10.0 mi Calm Calm - N/A   Clear
10:55 PM - - - N/A% 30.02 in 10.0 mi Calm Calm - N/A   Clear
11:15 PM - - - N/A% 30.02 in 10.0 mi Calm Calm - N/A   Clear
11:35 PM - - - N/A% 30.02 in 10.0 mi Calm Calm - N/A   Clear
11:55 PM - - - N/A% 30.02 in 10.0 mi Calm Calm - N/A   Clear